Wind_Speed
44 44 44 44 43 42 40 38 38 38 37 35 35 36 36 35 33 32 31 31 31 30 29 28 28 27 26 26 25 23 22 20 18 16 15 16 18 18 18 18 17 17 16 16 16 16 15 16 15 14 14 14 13 13 13 13 13 13 12 10 8 6 6 7 9 11 9 8 9 10 11 12 13 13 13 14 15 15 17 19 20 21 22 23 22
45 45 44 44 44 43 41 39 39 38 37 37 37 37 37 37 35 34 33 33 32 31 30 29 29 29 28 28 27 26 24 22 20 19 18 18 19 19 19 18 17 17 16 16 16 16 15 16 15 13 13 13 12 12 12 12 13 12 10 9 8 7 7 9 11 12 12 10 11 12 12 13 15 15 15 15 16 17 19 19 20 21 23 24 24
46 45 45 45 45 44 43 41 39 39 39 38 38 39 39 38 36 36 36 35 34 33 32 31 30 30 30 30 29 28 27 25 23 22 20 20 20 20 20 18 17 16 15 14 16 17 17 17 16 16 16 16 16 15 13 13 13 12 10 10 10 10 11 12 12 13 14 14 13 14 14 16 17 17 17 18 18 19 20 20 20 21 22 23 23
46 46 46 45 45 46 45 43 41 41 40 40 39 39 39 39 38 38 37 37 36 36 34 33 32 32 32 32 31 31 30 28 27 25 22 21 21 21 21 19 17 16 14 13 15 17 17 17 18 19 20 21 19 17 14 13 13 12 10 11 12 13 13 14 13 13 15 17 17 17 17 19 21 21 20 20 20 20 21 20 20 21 22 22 22
46 46 46 46 46 47 46 45 43 42 42 41 40 40 40 40 40 40 39 39 38 37 36 35 35 34 34 34 33 33 32 31 30 28 24 22 22 22 22 21 19 17 15 14 14 16 17 17 18 19 21 21 20 18 16 14 13 13 13 12 13 13 14 13 13 14 16 18 20 21 22 24 24 24 24 23 22 22 22 23 22 22 22 22 22
46 47 47 47 48 49 48 46 45 44 43 42 42 41 41 41 41 41 41 41 40 39 38 37 37 36 36 35 34 35 34 33 32 30 26 23 23 24 23 22 20 19 17 15 15 16 17 18 18 19 20 21 20 18 16 15 14 15 15 14 14 14 15 14 15 15 17 19 22 24 26 26 25 24 24 26 25 24 24 25 25 23 23 22 23
46 46 47 48 49 50 50 49 47 45 43 43 43 43 43 42 42 42 42 42 42 41 40 39 38 37 37 36 36 36 36 35 34 32 29 25 24 25 25 24 22 20 19 17 16 17 18 18 18 19 20 20 19 18 16 15 15 16 16 15 16 15 14 14 15 17 19 21 22 25 26 25 25 26 26 26 27 26 25 25 26 26 25 24 25
45 46 47 49 50 51 51 50 49 46 44 43 44 45 45 44 44 43 43 43 43 43 42 40 39 39 38 37 37 37 37 37 36 34 32 28 26 26 26 25 23 21 20 19 18 17 16 17 19 20 20 21 19 18 17 15 14 16 16 16 16 15 14 15 17 19 21 22 24 25 26 26 26 27 27 27 27 25 23 24 26 28 28 27 27
45 46 48 50 51 52 52 51 50 48 46 45 45 46 46 46 45 45 44 44 43 43 42 42 41 40 40 39 38 38 38 38 38 37 35 31 28 27 27 26 24 22 21 21 19 18 17 18 20 21 22 22 21 21 20 16 15 16 17 16 16 16 16 18 19 20 22 24 25 25 26 27 28 28 28 26 25 24 24 26 28 28 28 29 30
46 47 49 50 51 51 52 52 51 49 48 47 46 46 46 46 47 46 46 45 43 42 42 42 42 42 41 40 39 39 39 39 39 38 36 33 30 27 27 27 25 22 22 22 21 19 18 19 19 20 22 22 22 22 21 18 17 17 17 17 18 18 20 21 22 22 24 25 26 25 26 28 28 27 26 25 24 25 27 28 29 29 29 30 32
47 48 50 50 50 51 52 52 52 51 50 49 48 47 47 46 47 47 46 45 43 42 41 42 42 42 41 40 39 39 40 40 39 38 37 35 32 28 27 27 26 24 23 23 20 18 17 18 19 20 21 21 21 22 21 19 19 18 17 18 19 20 22 23 24 25 26 27 26 26 27 29 28 26 25 24 25 26 27 28 29 29 29 29 30
49 50 51 50 50 51 51 51 52 52 52 51 49 48 47 47 46 46 45 44 43 41 40 40 41 41 40 39 39 39 39 39 38 38 37 35 33 29 27 27 26 25 24 23 20 17 17 19 21 22 22 22 22 21 20 21 21 19 18 19 20 22 24 25 26 26 26 26 26 26 27 27 27 25 24 24 24 25 27 28 28 29 28 27 29
50 51 51 52 52 52 51 51 51 52 52 51 49 48 47 47 46 45 44 43 42 40 39 38 39 39 39 39 39 39 38 38 37 36 36 35 33 30 27 27 27 25 24 23 21 19 19 20 22 24 23 24 23 21 20 21 21 20 20 21 22 24 24 24 24 25 25 26 26 26 25 24 25 25 23 23 25 26 27 29 29 29 28 28 31
51 52 53 53 54 53 52 51 51 51 50 50 49 48 48 47 45 44 43 42 41 40 39 38 38 38 38 38 38 38 37 36 35 35 35 34 32 29 27 27 28 27 25 24 21 21 21 21 23 24 23 24 23 20 19 20 20 20 20 20 22 23 23 22 21 22 23 24 25 24 23 22 23 23 22 23 25 26 28 29 29 29 30 31 31
52 53 54 55 55 54 54 53 52 50 49 48 48 47 46 46 45 43 41 41 41 41 41 40 39 38 37 37 37 36 35 34 33 33 33 31 30 29 27 28 29 28 26 25 23 22 22 23 24 23 22 23 22 18 17 18 19 19 20 20 21 22 22 21 20 20 21 22 23 22 20 19 20 22 22 23 24 26 27 28 30 30 31 30 27
52 53 55 56 56 56 55 54 52 50 48 47 46 45 45 44 43 41 40 40 41 40 40 40 39 38 37 36 35 33 31 30 28 28 28 27 26 27 27 28 30 29 28 26 25 23 23 24 25 22 21 21 20 17 17 18 18 20 21 21 21 22 21 20 19 20 21 21 20 19 19 19 21 22 23 23 25 26 27 28 28 27 26 26 24
54 53 54 56 57 56 55 54 52 50 48 46 45 44 43 43 41 40 40 41 41 41 40 40 38 37 37 36 34 31 28 27 26 25 25 23 23 25 26 27 29 30 29 27 25 24 24 24 23 21 20 20 19 17 17 18 19 20 20 20 20 21 19 18 19 21 22 21 20 20 21 22 22 23 23 24 25 25 24 24 23 21 21 24 26
55 55 55 56 57 57 55 54 52 50 48 47 45 44 43 41 39 38 39 40 40 40 39 37 35 34 33 32 30 28 26 25 24 24 23 21 20 22 23 25 28 30 30 27 27 27 26 24 22 21 21 20 18 17 17 18 18 19 19 19 19 19 18 19 21 22 22 21 21 22 23 24 25 25 25 24 21 18 17 18 18 19 21 24 26
57 57 56 55 56 57 55 53 52 51 50 48 46 44 43 39 36 36 37 37 37 36 35 33 31 29 27 25 23 22 20 19 19 19 19 19 19 19 20 22 25 28 29 28 27 27 25 24 23 21 20 19 18 17 17 18 18 18 17 17 17 18 19 20 22 22 22 22 23 24 24 25 25 24 22 18 14 12 14 17 18 19 20 21 21
58 59 57 55 55 56 55 53 52 51 50 48 46 44 40 36 34 35 36 35 34 33 30 28 25 22 21 19 18 17 16 14 14 14 15 16 17 18 19 21 22 24 26 26 25 24 23 22 21 19 17 17 17 17 17 18 18 16 16 16 17 18 19 20 21 22 23 23 24 25 25 24 22 19 16 13 13 13 15 17 18 18 19 19 18
57 58 57 54 54 56 55 54 53 51 49 48 45 41 36 33 33 35 35 34 32 29 27 24 21 18 18 18 17 16 15 12 11 13 15 17 18 19 20 21 21 22 22 22 22 21 19 18 17 15 15 16 17 17 17 16 15 15 15 16 17 18 19 20 20 21 23 24 24 24 22 20 17 14 12 12 13 14 16 17 18 19 19 20 22
54 55 55 53 53 54 54 53 51 50 48 46 42 37 33 33 34 34 33 32 30 27 26 24 21 19 17 17 16 15 14 12 12 14 16 18 19 20 21 20 20 20 20 20 19 18 16 14 13 12 12 14 14 14 15 14 14 14 16 17 18 19 19 19 19 20 21 22 21 19 17 14 13 12 12 14 15 16 17 20 22 24 25 27 28
51 52 51 51 51 51 52 51 50 49 46 42 37 34 34 34 33 31 30 29 27 26 26 24 22 19 17 16 15 14 13 12 13 15 17 18 19 19 19 19 19 19 19 19 17 15 13 12 12 11 10 11 12 13 14 14 14 15 16 17 18 18 16 16 17 17 17 17 16 14 13 12 12 14 16 16 17 18 20 23 26 27 27 27 26
50 50 49 49 49 48 49 48 47 45 41 37 35 34 34 33 31 29 27 26 24 24 25 24 22 20 19 19 17 15 13 13 14 16 17 18 19 20 20 20 19 19 19 17 15 14 13 13 12 11 10 11 12 13 13 13 14 15 17 18 17 15 14 13 12 12 12 11 11 11 10 11 14 17 17 16 17 20 23 22 21 19 19 19 19
51 50 48 47 46 45 45 43 41 39 37 36 35 35 33 31 29 27 25 24 23 23 23 22 21 21 22 21 19 16 15 15 15 16 16 16 18 20 21 21 20 19 18 18 17 16 15 14 12 11 11 12 13 13 12 13 14 15 16 15 13 12 11 10 9 8 9 9 10 10 11 13 15 17 17 17 19 23 23 18 14 15 17 18 19
50 47 46 45 44 43 42 40 37 36 35 34 34 32 31 29 27 25 24 24 22 21 21 20 18 18 19 19 16 16 16 16 15 15 15 17 18 19 20 20 20 19 19 19 19 18 16 15 13 12 13 13 13 12 13 13 13 13 11 10 10 10 9 8 8 8 9 11 12 13 13 14 16 18 18 19 22 24 20 16 16 18 18 19 20
46 45 45 45 43 41 39 38 36 34 33 32 31 29 26 25 24 24 25 25 23 22 22 20 17 17 18 17 15 14 15 14 14 14 15 17 18 19 19 19 19 19 19 19 19 19 18 17 16 14 13 14 13 13 12 11 10 8 8 8 8 9 9 10 10 9 10 12 14 15 15 17 18 19 20 21 23 21 16 15 18 19 18 18 20
44 42 38 35 34 34 35 36 35 33 32 31 29 26 24 23 23 24 25 24 24 25 23 20 17 18 19 18 16 15 15 14 14 14 15 17 18 19 20 19 19 18 18 17 18 18 18 18 16 15 14 14 13 12 11 9 8 7 8 8 9 9 9 9 9 10 10 12 14 15 15 17 19 20 21 21 19 15 13 15 18 18 18 18 19
35 30 26 27 30 33 35 35 34 33 32 30 28 26 24 24 25 25 24 23 23 22 20 17 16 18 21 21 20 18 17 14 12 11 13 16 17 18 18 17 17 17 16 16 16 16 16 16 16 16 15 13 12 11 10 9 8 8 9 9 9 9 7 8 9 11 12 12 12 13 15 17 19 19 17 16 13 12 14 17 17 18 18 18 19
27 26 29 32 34 35 35 34 32 32 32 31 29 28 26 25 24 24 23 22 21 19 18 17 17 19 22 23 22 19 15 11 10 10 12 15 16 16 15 14 14 14 14 14 14 14 14 14 15 15 13 11 10 10 10 11 11 10 9 9 8 7 7 8 11 12 12 12 13 15 17 19 18 14 12 11 12 14 16 16 16 17 19 19 19
33 35 36 37 35 34 33 33 31 31 31 30 30 29 28 26 24 23 23 23 22 20 20 19 19 20 20 22 22 18 13 11 11 12 13 15 15 14 13 12 12 13 12 12 13 13 13 14 14 12 9 9 10 11 11 11 11 11 9 8 7 6 7 9 12 13 14 16 18 19 20 19 16 12 10 12 14 16 16 15 16 18 18 18 19
39 39 37 35 33 32 32 32 31 32 31 29 28 27 28 29 28 26 25 23 21 19 20 20 21 20 19 19 21 19 16 13 12 12 13 14 14 12 12 12 12 13 12 12 11 11 12 13 13 9 7 8 10 10 11 11 12 11 9 6 5 6 7 9 12 14 16 19 20 20 20 19 17 13 12 13 14 14 15 16 17 18 18 18 20
37 35 33 31 31 32 32 32 32 32 31 29 27 25 25 27 28 28 26 23 20 20 20 21 21 20 18 16 17 18 17 15 13 12 13 14 12 11 11 11 12 13 13 12 11 11 13 13 11 8 8 9 10 12 13 12 13 13 11 9 9 9 10 11 13 14 15 17 19 20 20 19 16 13 12 11 12 14 15 17 18 18 19 20 21
29 29 29 31 32 31 31 30 30 29 28 26 24 21 21 23 25 26 26 25 23 23 23 21 21 21 20 16 14 15 15 14 13 13 13 12 11 10 10 10 12 13 13 12 12 13 14 12 10 9 11 13 14 14 15 13 13 14 13 12 12 12 12 12 13 13 14 16 18 20 21 18 13 9 9 10 12 14 16 17 17 18 20 20 19
26 27 29 30 30 27 26 26 26 24 23 22 19 18 20 23 23 23 23 24 25 24 23 22 21 21 21 19 16 15 15 13 13 13 12 11 11 11 11 11 12 13 13 14 15 15 15 13 12 12 15 17 16 15 14 13 12 12 12 12 13 14 13 13 14 15 16 18 20 21 19 14 7 5 8 11 13 15 16 16 17 18 19 18 19
24 26 26 25 24 23 23 24 22 20 18 18 17 16 19 22 23 20 19 21 22 22 21 20 20 19 20 20 18 18 17 16 15 13 11 11 11 11 12 13 13 13 14 15 15 15 15 14 14 15 16 17 16 15 15 15 15 15 13 12 13 14 15 16 16 16 17 19 19 17 12 6 3 6 9 11 13 15 16 16 16 16 17 18 19
22 22 21 20 21 23 23 23 20 16 15 17 18 17 18 21 22 21 20 20 21 19 17 16 16 17 19 20 20 19 19 18 16 14 13 12 13 13 14 14 13 14 14 14 14 15 15 15 15 15 15 15 15 15 16 17 18 16 14 13 13 14 15 16 16 16 19 18 13 8 5 4 4 8 11 13 15 17 16 14 14 16 17 18 19
19 19 20 21 23 23 22 21 19 16 15 17 18 17 18 19 20 21 21 21 21 20 17 16 16 17 19 21 22 21 20 19 17 15 14 14 14 14 14 14 14 14 14 13 14 15 14 14 14 14 14 14 15 16 17 17 16 14 13 14 14 15 16 16 16 18 20 16 8 5 5 6 8 11 13 14 16 16 13 12 14 17 18 18 19
20 21 22 23 21 20 20 20 19 16 17 18 18 18 18 18 18 18 19 19 19 19 18 17 16 17 18 20 22 23 22 20 18 16 15 14 14 14 14 15 15 15 15 14 14 13 12 12 13 15 15 15 15 16 16 14 11 10 11 14 15 17 18 18 18 21 19 12 6 6 8 9 11 12 13 14 15 12 11 12 15 17 17 18 19
20 21 22 22 20 19 20 20 18 17 17 18 19 19 19 19 18 17 17 17 16 16 16 15 14 14 15 17 20 21 20 18 15 15 14 14 13 14 15 15 16 16 15 15 13 12 12 14 15 16 16 16 15 15 12 8 6 7 8 9 11 13 15 16 17 18 14 8 6 8 10 11 12 12 13 14 12 9 10 14 16 15 15 17 19
18 20 22 22 21 20 20 19 17 16 16 17 17 17 19 20 19 17 16 15 15 14 13 12 12 11 12 14 17 18 17 14 13 13 14 13 13 14 14 15 16 16 16 16 15 14 14 15 15 16 15 15 13 11 8 6 5 6 9 10 11 12 14 15 16 14 9 5 6 9 11 12 13 13 14 13 9 8 11 14 13 13 15 17 18
17 20 22 22 21 20 20 19 18 16 16 16 15 15 17 19 19 18 15 15 14 13 12 12 11 10 12 14 16 16 15 14 13 13 13 12 13 13 13 14 15 15 15 15 15 15 16 16 16 15 15 13 11 9 9 9 9 10 12 14 15 15 16 16 16 14 9 8 9 12 13 13 14 14 14 12 10 10 12 12 11 13 15 17 17
16 18 20 20 19 18 17 17 17 19 19 17 17 17 18 18 18 17 15 14 14 13 12 12 12 13 15 16 16 16 15 14 14 13 13 12 12 12 12 12 13 14 16 16 14 14 15 16 15 13 13 12 10 9 10 11 13 14 15 15 15 16 17 17 16 14 12 12 13 13 14 14 14 14 14 13 11 10 10 10 11 12 14 16 17
16 17 17 16 16 16 17 17 18 20 20 19 19 19 18 18 17 15 14 14 14 12 12 13 14 15 17 17 16 15 13 13 13 13 12 11 12 11 10 9 10 13 16 16 14 14 14 14 12 11 10 10 11 12 13 13 14 15 16 16 16 17 18 17 16 15 14 15 15 15 15 14 14 14 13 12 10 9 10 11 10 11 14 16 14
18 19 17 16 17 18 19 20 21 21 20 20 20 20 19 18 16 14 13 14 14 13 13 13 14 14 15 15 14 12 11 11 12 12 12 12 13 12 10 8 10 14 15 14 13 14 13 13 12 11 11 11 12 13 13 13 13 14 15 17 18 18 17 16 16 16 15 15 14 13 13 12 12 12 12 11 10 10 11 10 9 11 14 14 11
15 17 17 17 19 20 20 21 21 20 20 20 20 20 19 18 17 16 15 14 14 14 14 13 13 13 14 13 12 11 12 12 12 12 13 13 13 12 11 11 11 12 13 14 15 14 14 14 14 14 14 15 15 14 14 14 14 16 18 20 20 17 15 16 16 15 14 13 13 12 12 12 12 11 11 12 11 10 9 8 9 12 13 10 9
16 18 18 19 20 20 19 19 19 18 18 20 20 19 19 19 18 18 17 14 13 13 12 12 12 13 13 12 12 12 13 15 14 14 16 17 16 15 14 14 14 14 15 16 17 16 16 16 16 15 15 16 16 17 17 17 16 16 18 19 18 15 13 14 17 17 16 15 15 14 13 12 11 11 11 12 11 8 6 7 11 13 10 7 8
20 20 19 18 18 17 15 14 15 15 15 15 15 15 16 16 15 16 16 15 14 13 12 11 12 12 11 11 10 9 10 12 12 12 14 17 20 19 16 14 15 17 17 17 17 18 18 18 16 15 15 15 16 17 18 17 17 16 17 17 16 13 11 10 12 14 14 14 14 13 12 11 11 11 12 12 10 6 5 8 12 11 7 5 7
16 18 17 14 14 13 11 11 13 12 11 10 12 13 13 13 13 13 15 15 15 14 12 11 11 11 10 9 8 7 7 8 8 7 7 9 14 17 16 13 13 16 16 15 16 17 17 16 15 15 15 16 16 16 16 16 16 15 15 15 13 12 11 10 8 8 10 11 11 10 10 10 10 11 11 10 8 6 6 9 10 8 4 4 8
8 9 10 9 8 8 8 8 10 11 11 11 12 12 11 11 12 13 14 13 12 12 12 12 12 12 11 9 8 8 8 8 8 7 6 5 8 11 13 13 13 14 14 14 15 16 15 15 15 16 16 15 14 14 15 15 14 13 14 13 11 10 10 11 10 9 9 9 9 9 9 9 10 11 10 8 8 8 7 8 7 4 3 5 9
5 5 6 6 6 7 8 7 9 11 12 11 11 12 13 13 12 12 12 11 9 8 9 10 10 12 14 14 12 11 11 11 11 11 10 9 9 11 12 13 14 15 14 14 15 16 15 14 15 15 14 13 13 15 17 16 13 11 11 11 10 10 10 9 9 9 9 9 9 9 9 9 10 11 9 9 9 8 5 4 3 1 2 6 9
Wind_Direction
218 217 217 215 215 215 217 219 219 218 217 217 216 217 220 223 224 224 224 224 225 225 223 224 225 226 227 230 234 236 235 229 223 223 221 213 205 200 197 198 200 204 207 211 216 218 218 217 216 219 224 228 231 234 233 231 233 240 249 249 242 244 250 257 268 275 277 280 286 297 304 306 304 305 308 307 304 297 289 287 287 287 289 293 298
218 218 216 214 214 215 217 219 219 217 216 217 217 219 221 224 225 225 226 227 228 229 227 226 228 229 230 233 236 238 240 237 230 226 224 217 208 201 199 198 199 203 206 211 214 214 215 216 217 222 226 230 236 237 230 228 236 243 239 227 223 227 240 254 267 275 282 287 288 293 298 302 304 304 302 301 305 305 297 290 287 285 287 290 293
217 217 216 214 214 215 218 219 218 215 216 217 218 220 221 223 225 227 228 229 230 231 231 230 231 232 233 235 237 238 240 240 235 230 226 221 212 204 200 200 200 203 207 210 210 210 215 217 220 224 229 235 240 242 235 229 236 242 232 221 224 228 238 254 265 272 280 284 284 286 291 298 302 303 300 295 297 301 300 295 289 286 288 290 292
216 216 216 215 214 215 217 218 216 215 216 218 220 221 221 223 225 228 229 230 231 232 232 232 233 235 236 236 237 237 239 240 239 234 228 223 218 209 203 202 202 203 206 208 209 212 215 217 218 221 227 232 236 235 231 227 231 235 229 223 226 230 239 250 257 266 276 284 289 293 296 298 299 301 301 296 292 293 297 299 296 294 293 293 292
215 216 216 214 214 215 216 216 215 216 217 219 221 222 222 223 226 228 230 231 233 234 234 234 234 236 238 239 239 239 239 240 240 237 231 225 221 215 209 206 206 205 205 206 210 215 218 219 219 221 224 228 229 227 225 226 230 234 233 229 230 235 241 248 256 266 277 287 296 300 301 301 304 306 306 303 295 291 296 302 305 302 299 296 293
214 215 215 214 214 214 215 214 215 216 218 220 222 222 222 224 227 229 230 231 233 234 235 236 236 237 239 241 241 241 241 241 240 239 234 227 224 219 214 210 210 210 210 210 212 217 222 224 224 224 226 228 228 225 223 224 230 234 234 235 239 245 250 256 263 271 280 289 296 300 302 304 306 306 306 306 302 297 300 305 308 307 303 299 297
213 214 215 215 214 214 214 214 215 217 220 222 222 221 222 225 227 230 232 232 233 234 235 237 239 239 240 241 242 243 242 241 240 239 236 231 227 222 217 213 212 213 214 215 215 219 223 227 228 228 229 229 228 225 221 222 228 232 236 240 246 251 259 268 275 279 285 290 294 297 301 304 304 303 306 307 302 299 303 306 307 307 304 301 299
212 213 215 216 215 215 215 215 216 219 222 223 223 222 223 224 227 230 232 232 234 235 237 238 239 239 240 241 242 243 242 240 239 239 236 233 229 225 220 216 214 214 216 217 218 220 224 229 232 233 233 232 230 228 227 230 237 240 243 248 252 258 266 276 282 285 288 292 295 298 300 302 303 304 306 305 300 299 302 303 303 304 304 301 298
211 212 215 216 216 216 215 216 217 219 222 223 223 224 224 225 227 229 231 233 235 236 237 238 239 240 240 241 242 242 241 240 240 239 237 234 231 229 225 221 218 217 218 220 222 223 227 232 235 236 235 233 233 232 231 237 245 245 248 254 258 264 272 278 284 287 290 294 296 298 299 299 302 303 303 302 300 299 299 298 299 300 299 297 295
210 210 214 217 217 216 216 216 217 219 222 223 225 225 225 226 226 228 231 233 234 235 235 237 238 240 241 241 241 241 241 241 241 240 239 237 235 233 229 224 222 220 221 223 225 225 228 234 238 239 236 232 233 231 231 238 245 245 252 260 265 272 278 282 286 287 290 292 295 298 297 297 299 300 300 300 298 295 295 297 297 298 297 294 294
210 211 214 217 217 216 216 216 217 218 221 223 225 225 226 226 226 227 229 232 233 234 234 236 238 239 240 241 241 242 242 243 242 241 240 238 236 236 233 228 225 223 224 226 227 229 233 237 240 241 238 233 231 231 233 240 245 249 257 265 270 276 281 283 285 287 289 292 295 296 295 295 298 300 299 298 297 295 296 297 296 297 298 297 296
211 212 213 216 217 216 216 217 218 219 220 221 224 225 226 225 225 225 227 230 232 233 234 236 238 239 240 241 242 243 244 244 243 242 240 239 236 235 235 231 228 226 227 228 231 235 239 240 241 241 240 237 234 235 239 244 248 254 263 269 272 275 277 279 283 287 290 291 291 291 292 296 299 298 297 297 297 297 296 296 296 298 299 297 297
211 212 213 215 217 217 217 218 219 219 219 220 223 225 224 224 224 225 226 228 230 232 234 236 237 238 239 241 243 244 245 244 243 242 241 239 236 235 235 233 231 230 230 232 234 237 241 243 242 241 240 237 234 239 247 250 253 259 263 265 267 269 271 277 283 286 286 285 286 289 293 296 295 295 297 298 298 296 296 296 298 299 298 297 299
212 213 213 215 217 218 218 219 219 219 219 220 221 223 223 224 224 225 225 227 229 232 234 236 237 238 240 242 244 245 245 244 243 242 241 238 237 236 236 235 233 232 232 234 237 240 243 245 245 243 240 235 236 246 254 252 253 256 258 261 265 268 272 277 280 280 279 281 285 289 291 292 292 293 295 294 293 294 295 297 299 299 298 299 301
212 213 213 214 216 217 218 219 218 218 219 219 220 221 222 223 224 224 225 228 230 232 234 236 238 239 240 241 243 244 244 243 242 241 239 238 238 238 236 235 234 233 233 235 237 240 244 246 246 244 239 239 245 251 250 246 250 256 260 267 274 278 277 277 279 279 281 285 288 290 292 292 291 290 290 289 289 292 295 298 300 299 299 300 301
212 214 214 215 216 217 217 217 217 216 217 218 218 218 220 221 223 224 226 229 231 232 233 236 238 240 241 242 242 242 241 240 239 240 240 240 240 238 235 233 232 232 234 234 236 240 243 244 243 240 239 246 251 248 244 249 257 264 270 275 279 280 277 277 282 285 286 287 288 290 291 290 288 288 288 289 291 293 295 296 296 298 300 301 300
212 215 216 216 217 217 216 215 214 213 215 216 216 216 218 220 222 225 227 228 230 231 233 235 238 239 241 241 240 239 239 239 240 242 243 242 239 235 232 228 228 231 232 233 236 238 240 243 243 243 248 254 251 245 250 259 264 271 277 279 277 275 273 276 280 281 280 281 283 284 284 283 283 284 286 289 291 292 291 290 293 299 302 302 302
211 215 218 217 217 216 215 213 211 210 211 214 215 216 217 219 221 224 227 229 231 233 235 236 238 239 240 240 240 240 241 243 244 244 243 240 235 232 230 227 226 230 232 233 236 238 241 246 248 251 257 258 250 248 257 264 267 271 274 274 274 274 274 277 277 277 279 280 280 279 279 279 279 281 285 290 290 288 286 290 297 300 300 301 304
210 214 218 218 216 214 213 211 209 208 210 212 215 216 216 218 221 225 227 229 231 233 234 236 237 238 239 241 242 241 240 239 240 239 237 234 231 229 227 225 226 229 232 235 239 241 245 248 249 252 256 252 248 254 262 265 267 269 269 271 276 278 280 281 280 281 282 281 279 278 278 279 281 284 287 287 284 285 292 296 298 296 296 298 299
210 213 216 217 214 212 211 209 207 208 210 212 214 215 215 217 221 223 224 226 229 231 233 234 235 236 238 238 236 235 234 232 229 226 224 224 224 222 222 221 222 226 230 235 240 243 245 246 247 250 250 247 251 260 265 264 264 265 268 274 280 282 282 282 282 283 283 281 280 280 281 284 286 286 284 280 282 288 292 295 296 295 295 294 291
210 211 214 215 213 211 209 207 206 207 209 211 212 211 212 216 219 220 220 221 223 226 228 229 230 229 228 227 226 227 230 227 219 214 213 215 218 220 221 222 222 225 229 234 237 240 243 244 245 246 249 252 257 259 259 257 258 264 274 281 284 284 283 282 282 282 282 282 282 283 285 286 285 283 283 285 285 282 280 283 289 291 292 293 293
209 210 211 211 210 207 204 202 203 204 206 208 208 207 209 214 215 216 218 218 217 218 220 223 223 218 215 216 219 224 224 219 213 212 214 216 219 221 223 225 225 225 228 231 233 235 238 241 242 246 249 249 248 245 246 250 259 271 281 285 286 285 285 285 284 283 283 284 285 286 283 280 280 284 287 285 281 277 276 278 280 282 285 288 292
206 207 206 205 202 198 196 196 198 200 201 201 203 204 207 209 210 213 215 215 213 212 213 213 210 206 205 208 214 219 219 213 211 215 220 221 220 221 224 226 223 221 222 226 229 230 232 233 235 236 236 234 233 235 242 253 267 278 284 287 289 289 290 290 288 288 288 287 284 279 276 284 301 305 296 287 285 288 290 287 284 284 285 287 289
204 202 199 196 192 189 189 191 193 195 195 196 199 203 205 207 208 208 209 208 208 207 207 207 204 203 206 208 210 216 218 212 209 213 218 219 217 216 218 218 214 212 214 219 222 223 224 226 227 228 228 229 232 238 248 261 275 284 289 292 293 294 295 297 299 302 305 299 287 284 295 313 320 317 309 300 299 304 304 298 293 294 297 298 300
199 196 191 187 183 182 183 185 186 188 190 195 199 202 205 203 199 198 200 202 203 203 203 204 207 211 214 212 212 215 213 206 202 202 205 207 207 207 208 208 205 205 209 213 217 219 220 221 224 231 236 235 235 242 255 269 280 286 289 291 293 294 298 309 317 318 321 319 311 314 325 323 315 313 311 307 307 312 313 310 310 316 316 314 312
191 186 181 178 177 177 177 177 180 184 189 194 198 199 199 195 190 190 194 195 194 191 189 189 195 205 208 205 207 210 206 200 197 196 198 199 197 197 198 199 199 201 206 211 216 220 223 227 236 244 242 235 235 247 262 273 282 285 284 288 294 297 304 318 322 316 321 329 325 321 320 311 303 303 304 304 310 316 318 319 322 323 322 320 319
178 171 168 168 169 171 174 176 179 182 184 186 188 187 185 184 183 185 188 187 184 182 182 180 183 192 198 199 204 208 202 195 195 197 198 199 196 195 196 197 198 202 207 211 217 223 230 237 245 246 237 233 241 254 265 276 285 285 283 290 297 299 308 319 318 313 318 323 317 310 302 294 292 296 300 306 313 317 320 323 324 323 325 326 324
155 152 153 159 165 171 176 175 172 172 172 173 174 173 173 176 180 184 187 189 188 185 183 182 185 192 198 201 206 210 206 199 197 200 202 203 200 197 197 198 201 205 210 217 223 228 234 241 244 240 235 238 247 257 268 284 295 289 284 287 287 288 301 313 311 304 302 300 297 295 289 285 289 297 304 310 315 321 328 328 325 324 328 329 327
146 150 158 166 170 171 169 167 165 166 166 167 169 171 174 179 181 182 185 190 192 189 187 191 199 203 204 206 209 212 208 200 197 204 208 204 200 198 198 200 205 211 219 226 229 231 235 237 236 234 237 244 253 264 281 295 298 290 283 278 272 271 284 301 299 291 285 282 282 285 287 292 300 307 311 315 322 331 331 326 324 327 330 329 328
159 164 165 166 165 163 162 163 165 168 168 171 175 176 176 179 182 182 184 188 192 195 198 205 208 204 201 206 213 216 212 201 195 202 203 200 199 202 205 209 215 219 221 223 225 230 235 235 233 234 241 251 263 280 291 293 294 291 279 261 254 260 274 282 280 273 268 270 280 291 298 304 310 316 323 328 329 327 324 324 328 330 329 328 329
161 161 163 164 163 163 166 167 168 170 172 177 180 176 173 174 180 186 191 194 197 198 199 199 196 192 195 206 214 215 212 207 204 203 199 196 197 199 199 201 206 210 212 216 222 228 231 230 230 234 245 262 278 287 288 287 292 290 271 252 255 265 265 262 262 263 268 276 286 296 303 306 308 315 328 328 322 321 326 331 332 329 328 330 330
161 161 163 165 165 168 172 173 173 174 174 176 179 180 178 178 179 182 187 191 194 192 187 186 187 190 198 209 212 210 205 202 204 206 199 194 192 190 188 189 196 204 211 217 223 226 228 229 232 240 260 277 282 280 277 282 289 283 265 249 256 260 256 263 272 278 284 290 295 298 301 303 302 305 312 315 317 324 332 332 329 328 330 329 327
161 160 161 160 163 169 174 172 172 173 174 176 179 182 183 182 181 180 179 181 183 182 181 184 190 196 203 205 204 206 206 205 207 208 200 192 189 189 190 192 196 205 213 218 221 224 228 232 236 244 258 266 264 259 259 263 265 259 251 245 245 249 257 269 279 288 295 299 301 303 305 305 304 302 304 314 327 333 330 325 325 329 328 326 326
158 160 160 159 162 168 172 169 167 169 173 177 182 185 185 186 187 186 181 177 177 180 184 190 195 201 209 208 199 198 203 209 214 211 201 194 193 193 194 196 199 206 213 220 225 227 229 232 235 234 238 246 252 255 258 254 243 240 245 249 254 261 267 271 280 292 298 298 304 310 312 309 307 309 319 330 333 326 319 321 326 326 325 327 332
157 159 159 159 162 168 172 170 169 170 173 177 184 189 189 188 190 191 187 184 183 184 189 196 200 205 212 215 208 199 198 205 213 213 206 201 200 200 201 204 206 211 216 221 227 231 231 233 236 237 240 246 250 252 253 249 245 248 252 253 256 263 269 276 286 294 299 303 308 312 311 306 308 330 336 332 323 316 316 321 323 323 327 334 338
157 157 158 159 164 171 174 172 171 172 177 182 188 194 194 192 191 191 189 190 191 190 193 200 205 208 210 212 210 205 201 201 206 210 209 210 210 211 213 215 217 222 225 229 231 232 232 237 244 247 248 249 251 254 256 260 267 270 268 262 260 261 269 279 286 294 304 309 310 309 308 309 337 345 330 317 310 309 313 317 320 326 335 339 338
159 160 160 164 170 176 178 175 169 168 176 186 190 192 195 197 197 196 195 197 198 198 201 205 210 212 211 207 204 203 202 203 205 207 209 213 217 219 221 225 229 231 232 235 234 232 236 243 248 248 247 247 253 261 266 271 274 273 269 265 264 266 275 283 285 291 301 304 305 310 319 330 337 328 314 305 305 309 313 321 329 335 338 337 336
163 164 166 168 170 173 177 175 170 169 176 183 187 190 195 200 201 201 204 207 208 210 213 214 213 215 213 206 201 201 203 206 208 212 217 221 223 224 225 227 230 231 232 233 233 235 241 244 241 239 244 251 259 267 273 279 280 275 270 267 267 271 279 282 284 292 299 301 304 317 321 317 314 309 303 304 309 314 323 336 339 335 334 335 336
159 162 166 168 168 172 177 176 172 173 179 182 186 190 194 196 196 198 205 210 210 209 209 208 209 212 212 208 205 204 206 210 214 218 222 224 224 225 226 226 228 230 231 230 231 234 239 241 240 243 249 257 266 275 281 285 287 286 281 273 267 269 273 276 284 294 297 295 297 306 305 301 299 298 303 309 313 320 335 339 333 331 333 335 334
161 162 167 170 169 171 177 179 176 175 180 184 187 190 192 193 193 195 200 200 195 191 193 198 204 208 210 210 209 207 208 213 217 219 220 220 221 223 225 225 227 229 229 228 229 230 232 235 239 243 250 260 270 278 279 277 282 295 293 276 264 268 272 276 286 295 295 285 284 291 291 292 293 298 308 314 317 328 336 329 324 328 333 333 333
168 169 174 177 174 171 175 180 180 180 183 185 186 187 191 193 194 194 196 193 186 183 191 203 209 211 212 214 212 211 214 218 217 214 214 216 220 225 228 229 230 230 227 225 226 228 231 233 236 241 251 264 273 277 275 268 271 283 285 278 274 275 274 276 289 300 302 286 273 276 279 285 292 300 309 315 320 325 322 320 322 330 333 333 334
173 173 175 179 179 175 176 177 177 176 178 179 181 183 187 191 196 199 202 199 192 192 204 215 213 205 204 205 204 203 205 207 207 209 215 219 224 229 232 233 234 232 226 222 223 228 234 237 240 247 260 271 278 282 280 274 271 276 282 282 279 273 271 278 292 300 290 263 260 270 276 280 286 296 307 314 315 311 313 319 327 331 331 333 336
175 176 176 178 178 177 178 179 177 176 174 174 177 180 183 187 192 194 193 190 191 198 210 212 200 186 182 184 186 188 193 199 205 212 217 221 226 231 235 238 237 229 218 213 216 227 238 242 245 255 268 275 278 279 274 269 271 278 282 281 277 275 278 285 291 289 273 256 254 262 268 273 282 297 309 312 308 308 316 322 324 328 333 335 336
176 177 177 177 176 176 179 178 175 175 178 179 179 181 183 185 187 186 183 185 192 200 201 194 187 184 182 181 184 192 201 208 216 220 221 224 228 231 237 241 227 210 207 212 220 228 234 239 242 250 259 264 268 268 266 266 271 275 275 275 278 284 286 284 279 273 264 253 250 256 264 274 288 302 311 312 310 313 319 319 322 332 335 332 336
178 172 164 161 162 165 170 173 171 172 176 178 178 180 183 184 183 181 181 184 185 186 187 187 189 192 193 193 198 208 216 221 227 231 232 233 234 237 242 235 205 193 197 213 223 226 230 235 239 241 242 245 253 260 263 268 274 278 282 287 292 292 285 273 265 262 259 255 257 265 277 288 299 307 311 310 306 308 312 317 326 332 329 329 343
178 169 160 159 162 165 168 171 173 175 175 173 172 173 175 177 176 175 177 181 181 180 183 190 195 197 199 203 212 223 230 234 237 236 230 225 224 230 240 239 220 205 206 217 224 230 237 243 246 246 242 240 246 256 263 271 279 284 287 292 294 289 276 263 258 258 259 261 269 279 286 292 299 305 306 303 301 304 313 321 325 324 323 333 356
173 170 166 165 168 171 170 168 169 172 176 177 177 175 173 173 175 176 178 186 193 191 186 189 197 202 206 211 218 227 235 241 243 238 229 220 214 215 227 237 234 225 222 225 230 236 239 239 239 243 247 250 257 265 267 271 279 285 288 291 294 289 272 256 252 255 258 264 271 278 284 290 297 303 304 301 299 304 316 321 320 320 325 345 4
154 154 155 158 163 168 168 165 165 171 177 180 180 180 179 178 179 182 183 187 195 198 195 195 204 212 214 215 216 221 229 235 238 234 226 220 215 214 220 229 229 224 223 227 232 234 235 235 238 246 255 260 263 264 265 270 279 290 296 298 299 296 286 268 258 257 261 265 270 276 282 289 296 302 304 300 297 303 314 313 315 321 331 356 3
142 139 141 150 158 160 160 159 160 163 171 175 171 171 177 179 179 184 190 194 200 206 208 209 214 219 218 213 209 208 209 215 222 224 220 215 214 214 216 220 223 224 229 236 237 236 236 238 242 249 255 255 254 257 267 275 283 293 303 304 297 290 289 292 289 280 273 271 272 275 282 290 297 302 303 297 286 282 292 303 311 322 338 1 3
159 153 156 162 162 156 156 162 163 161 168 176 174 171 177 184 187 192 200 204 206 208 207 207 214 222 223 217 211 210 208 203 202 202 198 193 200 209 215 223 232 239 244 246 242 237 236 237 240 244 248 250 255 270 286 293 295 301 308 307 299 292 292 295 297 294 286 280 279 280 285 294 300 301 298 286 270 270 287 304 312 324 354 3 359
151 153 148 146 148 150 152 160 171 174 177 182 184 184 185 190 198 207 210 205 196 193 197 205 215 223 223 221 219 218 217 216 214 214 214 213 215 220 225 229 236 242 244 243 238 234 232 232 235 239 244 254 270 287 297 303 307 314 317 310 301 299 301 300 297 294 289 285 286 287 290 298 302 299 290 277 270 275 295 311 303 306 1 352 344
Height
1489 1491 1494 1498 1500 1503 1505 1507 1509 1512 1515 1517 1518 1520 1521 1522 1524 1526 1528 1529 1531 1532 1534 1535 1536 1538 1540 1541 1542 1544 1545 1547 1548 1549 1551 1552 1553 1554 1555 1555 1556 1557 1558 1559 1559 1560 1561 1562 1562 1562 1563 1563 1564 1564 1565 1565 1565 1566 1566 1566 1566 1566 1566 1566 1566 1566 1566 1567 1566 1566 1566 1565 1564 1564 1564 1563 1562 1561 1560 1559 1559 1558 1557 1556 1555
1485 1488 1492 1495 1497 1499 1501 1503 1506 1509 1512 1514 1515 1516 1517 1519 1521 1523 1524 1526 1527 1529 1531 1533 1534 1536 1537 1538 1539 1541 1542 1544 1546 1547 1548 1549 1550 1551 1552 1553 1554 1554 1555 1556 1557 1558 1559 1559 1560 1560 1561 1561 1562 1562 1563 1563 1564 1564 1564 1564 1564 1565 1565 1565 1565 1564 1564 1564 1564 1564 1563 1563 1561 1561 1560 1560 1559 1558 1557 1556 1556 1555 1554 1553 1552
1482 1485 1488 1491 1494 1495 1497 1500 1503 1506 1508 1510 1511 1512 1514 1516 1518 1520 1521 1523 1524 1526 1528 1530 1532 1533 1534 1535 1536 1538 1539 1540 1542 1544 1545 1547 1548 1548 1550 1550 1551 1552 1553 1553 1554 1555 1556 1557 1558 1559 1559 1559 1560 1560 1560 1561 1561 1562 1562 1562 1562 1563 1563 1563 1563 1563 1562 1561 1561 1561 1560 1560 1559 1558 1557 1556 1555 1554 1553 1553 1553 1552 1551 1551 1550
1478 1482 1485 1488 1490 1492 1493 1496 1499 1502 1504 1506 1507 1508 1511 1513 1514 1516 1518 1520 1522 1523 1525 1527 1529 1530 1531 1532 1533 1534 1536 1537 1538 1540 1542 1544 1545 1546 1547 1548 1548 1550 1550 1551 1552 1553 1554 1555 1555 1556 1557 1557 1557 1558 1558 1558 1559 1559 1560 1560 1560 1560 1561 1561 1561 1561 1560 1559 1559 1558 1558 1557 1556 1555 1554 1553 1552 1551 1550 1550 1549 1549 1548 1548 1547
1475 1478 1481 1484 1487 1488 1489 1492 1495 1497 1500 1501 1502 1505 1507 1509 1511 1513 1515 1517 1518 1520 1522 1523 1525 1526 1527 1528 1530 1531 1532 1533 1535 1537 1539 1541 1542 1543 1544 1545 1546 1547 1548 1549 1550 1551 1552 1552 1553 1554 1555 1555 1555 1555 1555 1556 1557 1557 1557 1557 1557 1558 1558 1558 1559 1559 1558 1557 1556 1556 1555 1554 1553 1553 1552 1551 1549 1548 1547 1546 1546 1545 1545 1544 1544
1471 1474 1477 1480 1482 1483 1485 1488 1490 1493 1496 1497 1499 1501 1504 1505 1507 1509 1511 1513 1515 1517 1518 1519 1520 1522 1523 1525 1526 1527 1528 1530 1531 1533 1536 1538 1540 1541 1542 1543 1544 1545 1546 1546 1547 1549 1550 1550 1551 1552 1552 1552 1553 1553 1554 1554 1555 1555 1556 1555 1555 1555 1555 1556 1556 1555 1555 1554 1554 1553 1553 1552 1551 1549 1549 1548 1546 1545 1544 1542 1542 1542 1541 1541 1541
1468 1471 1474 1476 1477 1479 1481 1483 1486 1488 1491 1493 1495 1497 1500 1501 1503 1505 1507 1509 1511 1512 1514 1515 1516 1518 1520 1522 1523 1524 1525 1526 1528 1530 1533 1535 1537 1538 1539 1540 1541 1542 1543 1544 1545 1546 1547 1548 1549 1549 1550 1551 1552 1552 1553 1553 1553 1553 1553 1554 1554 1554 1553 1553 1553 1553 1552 1552 1551 1550 1550 1549 1548 1546 1545 1545 1543 1542 1541 1539 1538 1538 1538 1538 1537
1464 1467 1470 1471 1473 1474 1477 1479 1481 1484 1486 1489 1491 1494 1495 1497 1499 1501 1503 1505 1507 1508 1509 1511 1513 1514 1516 1518 1520 1521 1522 1523 1524 1526 1529 1531 1534 1535 1536 1538 1539 1540 1541 1542 1543 1543 1544 1546 1546 1547 1548 1549 1550 1551 1551 1551 1551 1551 1551 1551 1552 1552 1552 1551 1551 1550 1550 1549 1548 1547 1546 1546 1544 1543 1543 1542 1540 1539 1538 1537 1535 1535 1534 1534 1533
1459 1463 1465 1467 1468 1470 1473 1475 1477 1480 1483 1485 1487 1489 1491 1493 1495 1497 1499 1500 1502 1504 1506 1508 1510 1511 1513 1515 1516 1518 1519 1519 1521 1522 1525 1528 1530 1532 1534 1535 1536 1538 1539 1540 1541 1541 1542 1543 1544 1545 1546 1547 1548 1548 1549 1549 1549 1549 1549 1550 1550 1550 1550 1549 1549 1548 1547 1546 1545 1545 1544 1542 1542 1541 1540 1539 1538 1537 1536 1535 1533 1532 1531 1530 1530
1454 1458 1460 1462 1464 1467 1469 1471 1474 1476 1478 1480 1482 1485 1487 1490 1492 1494 1495 1497 1499 1502 1504 1506 1507 1508 1510 1512 1513 1514 1515 1516 1518 1520 1522 1524 1527 1530 1531 1533 1534 1536 1537 1538 1539 1539 1539 1540 1541 1542 1543 1544 1545 1546 1547 1547 1547 1547 1548 1548 1548 1548 1547 1547 1546 1546 1545 1544 1543 1542 1541 1539 1539 1538 1537 1536 1536 1535 1534 1532 1531 1529 1528 1527 1525
1450 1453 1455 1457 1461 1463 1465 1467 1469 1471 1473 1476 1478 1481 1484 1486 1489 1491 1493 1495 1497 1500 1502 1503 1505 1506 1508 1509 1511 1511 1512 1514 1515 1517 1520 1522 1525 1527 1529 1531 1532 1533 1535 1536 1537 1537 1537 1538 1539 1540 1541 1542 1543 1544 1545 1546 1546 1546 1546 1546 1546 1546 1545 1545 1544 1544 1543 1542 1541 1539 1538 1536 1536 1535 1534 1534 1533 1532 1531 1529 1528 1526 1525 1523 1522
1445 1448 1450 1454 1457 1459 1461 1463 1465 1467 1469 1472 1475 1478 1481 1484 1486 1489 1491 1493 1495 1497 1500 1501 1503 1505 1506 1507 1508 1509 1510 1511 1513 1515 1517 1519 1522 1525 1527 1529 1530 1531 1532 1533 1534 1535 1535 1536 1537 1538 1539 1540 1541 1542 1543 1544 1544 1544 1544 1544 1544 1544 1543 1542 1542 1542 1541 1539 1538 1537 1535 1533 1532 1532 1532 1531 1530 1529 1528 1526 1525 1523 1522 1521 1519
1440 1443 1446 1450 1452 1454 1456 1459 1460 1463 1465 1469 1472 1475 1478 1481 1484 1486 1489 1491 1493 1495 1497 1499 1500 1502 1503 1504 1505 1506 1508 1509 1511 1513 1515 1517 1520 1523 1525 1527 1528 1529 1530 1530 1531 1532 1533 1533 1534 1535 1537 1538 1539 1540 1540 1541 1541 1542 1542 1542 1541 1541 1540 1540 1539 1539 1538 1537 1535 1533 1532 1531 1530 1529 1529 1529 1527 1526 1525 1523 1522 1521 1519 1518 1517
1435 1438 1441 1444 1446 1449 1452 1454 1456 1459 1462 1466 1470 1472 1475 1478 1481 1484 1486 1489 1491 1492 1494 1495 1497 1499 1500 1501 1502 1503 1504 1506 1508 1511 1513 1515 1518 1521 1523 1524 1525 1526 1527 1527 1528 1529 1530 1531 1531 1533 1534 1535 1536 1537 1538 1538 1539 1539 1539 1538 1538 1537 1537 1536 1536 1536 1535 1534 1532 1530 1529 1529 1527 1526 1527 1526 1524 1523 1522 1520 1519 1518 1516 1515 1514
1430 1433 1436 1439 1442 1444 1447 1450 1453 1456 1460 1463 1466 1469 1472 1475 1478 1481 1484 1486 1487 1489 1490 1492 1493 1495 1497 1498 1500 1500 1502 1504 1506 1509 1511 1514 1516 1518 1520 1521 1521 1522 1523 1524 1525 1526 1527 1528 1529 1530 1532 1533 1533 1535 1535 1535 1536 1536 1536 1535 1535 1534 1533 1533 1533 1532 1532 1530 1529 1527 1526 1526 1525 1524 1523 1523 1522 1521 1519 1518 1516 1515 1513 1512 1510
1426 1429 1432 1434 1437 1439 1442 1445 1449 1452 1457 1460 1463 1467 1470 1472 1475 1478 1480 1482 1483 1485 1487 1488 1490 1491 1493 1495 1496 1497 1499 1501 1504 1507 1509 1511 1513 1515 1516 1517 1518 1519 1520 1522 1523 1524 1525 1526 1526 1528 1529 1530 1531 1532 1532 1533 1533 1533 1533 1532 1532 1531 1531 1530 1530 1529 1528 1527 1525 1524 1523 1522 1521 1521 1520 1520 1519 1518 1517 1515 1514 1512 1510 1508 1507
1421 1424 1426 1429 1432 1434 1437 1441 1444 1449 1453 1457 1460 1463 1466 1469 1472 1474 1476 1478 1479 1481 1483 1485 1486 1488 1489 1490 1492 1493 1495 1498 1500 1503 1505 1507 1509 1511 1512 1514 1515 1516 1517 1519 1521 1521 1522 1523 1524 1525 1526 1527 1528 1529 1530 1530 1530 1530 1530 1529 1529 1528 1528 1528 1527 1526 1525 1524 1523 1521 1520 1519 1519 1518 1518 1517 1517 1516 1514 1512 1511 1510 1508 1506 1504
1416 1418 1421 1423 1426 1429 1433 1436 1440 1445 1450 1453 1456 1459 1462 1465 1468 1471 1473 1474 1476 1478 1480 1482 1484 1486 1488 1489 1490 1491 1493 1494 1496 1499 1502 1504 1506 1507 1509 1511 1512 1513 1514 1516 1518 1518 1519 1521 1522 1523 1524 1525 1526 1527 1528 1528 1528 1527 1527 1526 1526 1525 1525 1525 1524 1523 1523 1522 1520 1519 1518 1518 1517 1516 1516 1515 1514 1513 1511 1509 1509 1508 1506 1504 1502
1410 1412 1415 1418 1422 1425 1429 1432 1436 1440 1445 1449 1452 1455 1458 1462 1466 1468 1470 1472 1474 1476 1478 1480 1483 1485 1487 1489 1491 1492 1492 1492 1494 1496 1498 1501 1503 1504 1506 1507 1509 1510 1512 1513 1515 1516 1517 1518 1519 1520 1522 1523 1524 1525 1525 1525 1525 1525 1525 1524 1523 1523 1522 1522 1521 1521 1520 1519 1518 1517 1516 1515 1514 1513 1513 1512 1511 1510 1509 1507 1506 1505 1503 1501 1500
1404 1406 1409 1413 1417 1421 1424 1427 1431 1435 1440 1445 1448 1452 1456 1460 1463 1465 1468 1470 1472 1474 1476 1478 1481 1483 1485 1487 1489 1490 1490 1490 1492 1493 1496 1498 1500 1502 1503 1505 1506 1508 1509 1510 1512 1513 1515 1516 1517 1518 1519 1521 1522 1522 1523 1523 1523 1523 1522 1522 1521 1520 1520 1519 1519 1517 1516 1515 1514 1513 1513 1512 1511 1510 1510 1509 1508 1507 1506 1505 1503 1502 1501 1499 1498
1399 1402 1404 1408 1412 1415 1418 1422 1426 1431 1436 1441 1445 1449 1454 1458 1460 1462 1465 1467 1469 1471 1474 1476 1478 1480 1482 1484 1486 1488 1488 1489 1490 1491 1493 1495 1497 1499 1500 1502 1503 1505 1507 1508 1510 1511 1512 1513 1514 1516 1517 1518 1519 1520 1520 1521 1521 1520 1520 1520 1519 1518 1517 1517 1516 1515 1513 1512 1511 1510 1510 1509 1508 1507 1507 1506 1505 1505 1503 1502 1501 1500 1499 1497 1496
1395 1397 1399 1402 1406 1409 1412 1417 1422 1427 1432 1437 1442 1447 1451 1454 1457 1459 1462 1465 1467 1470 1471 1473 1475 1476 1478 1480 1482 1485 1486 1487 1488 1489 1491 1493 1495 1496 1498 1499 1501 1503 1504 1506 1507 1508 1510 1511 1512 1513 1514 1515 1516 1517 1518 1518 1518 1518 1518 1517 1516 1515 1514 1514 1513 1511 1510 1509 1508 1508 1507 1506 1506 1505 1504 1504 1503 1502 1501 1500 1499 1498 1496 1495 1494
1389 1391 1395 1398 1401 1404 1408 1412 1418 1423 1428 1434 1439 1443 1447 1450 1453 1456 1459 1462 1466 1468 1470 1471 1473 1474 1475 1477 1479 1481 1483 1484 1486 1487 1489 1490 1492 1494 1495 1497 1498 1500 1501 1503 1504 1506 1507 1508 1509 1511 1512 1513 1514 1515 1516 1516 1516 1516 1515 1514 1513 1512 1511 1511 1510 1509 1508 1507 1506 1505 1505 1505 1504 1503 1502 1501 1500 1500 1499 1497 1496 1495 1493 1492 1491
1383 1386 1389 1393 1396 1401 1405 1410 1415 1420 1425 1430 1435 1439 1443 1446 1450 1454 1457 1460 1464 1467 1469 1471 1473 1475 1476 1477 1478 1480 1481 1482 1484 1485 1487 1488 1489 1491 1492 1494 1495 1497 1499 1501 1502 1504 1505 1506 1508 1509 1510 1511 1512 1513 1513 1513 1513 1513 1512 1511 1511 1510 1509 1509 1508 1507 1506 1505 1504 1504 1504 1503 1502 1501 1500 1500 1499 1498 1496 1494 1493 1491 1490 1489 1487
1377 1379 1383 1388 1393 1398 1403 1408 1413 1418 1423 1427 1431 1435 1439 1443 1447 1451 1454 1458 1462 1465 1467 1470 1472 1475 1477 1477 1478 1479 1480 1481 1482 1483 1485 1486 1487 1488 1490 1491 1493 1495 1497 1499 1500 1502 1503 1504 1506 1507 1508 1509 1510 1510 1511 1511 1511 1510 1510 1509 1508 1508 1507 1507 1506 1505 1504 1504 1503 1503 1502 1501 1501 1500 1498 1498 1497 1495 1493 1491 1490 1489 1487 1486 1484
1373 1376 1381 1386 1391 1396 1402 1407 1413 1417 1421 1424 1428 1433 1436 1440 1444 1448 1452 1455 1458 1461 1463 1466 1469 1474 1477 1478 1478 1478 1479 1480 1481 1482 1483 1485 1486 1487 1488 1490 1492 1494 1496 1497 1499 1500 1501 1503 1504 1505 1506 1506 1507 1508 1508 1508 1508 1508 1508 1507 1507 1506 1506 1505 1504 1503 1503 1502 1502 1501 1501 1500 1499 1498 1496 1495 1494 1493 1491 1489 1488 1486 1485 1484 1482
1374 1378 1382 1386 1390 1395 1401 1406 1411 1415 1418 1422 1426 1431 1435 1439 1443 1446 1449 1452 1455 1457 1459 1461 1465 1471 1476 1477 1477 1477 1478 1479 1480 1481 1483 1484 1485 1486 1487 1489 1491 1492 1494 1496 1497 1499 1500 1501 1502 1503 1503 1504 1505 1506 1506 1506 1506 1506 1505 1505 1505 1504 1504 1503 1502 1502 1501 1501 1500 1499 1499 1498 1497 1496 1495 1493 1492 1490 1489 1488 1486 1484 1483 1482 1480
1374 1379 1385 1391 1396 1400 1403 1406 1409 1413 1417 1421 1425 1429 1434 1437 1441 1444 1447 1449 1451 1453 1455 1456 1460 1467 1472 1474 1475 1476 1477 1478 1479 1480 1482 1483 1484 1485 1486 1488 1489 1491 1493 1494 1496 1497 1498 1499 1500 1501 1501 1502 1503 1504 1504 1504 1504 1503 1503 1503 1503 1502 1502 1501 1501 1500 1500 1499 1498 1498 1497 1496 1495 1494 1493 1491 1490 1489 1488 1486 1485 1483 1482 1480 1478
1378 1385 1391 1397 1402 1405 1406 1407 1409 1412 1416 1420 1424 1428 1432 1436 1439 1442 1446 1449 1451 1452 1453 1455 1459 1465 1469 1472 1474 1475 1476 1477 1479 1480 1482 1483 1484 1485 1485 1487 1489 1490 1492 1494 1495 1496 1497 1497 1498 1499 1500 1501 1501 1502 1502 1502 1502 1501 1501 1501 1501 1500 1500 1499 1499 1498 1498 1497 1497 1496 1495 1494 1493 1492 1491 1489 1488 1487 1486 1485 1483 1482 1481 1479 1477
1385 1390 1394 1398 1403 1405 1406 1408 1411 1413 1416 1419 1422 1426 1430 1435 1439 1442 1445 1449 1452 1453 1453 1455 1459 1463 1467 1470 1473 1474 1476 1477 1479 1480 1481 1483 1484 1484 1485 1487 1488 1490 1491 1493 1494 1495 1495 1496 1497 1498 1498 1499 1499 1500 1500 1500 1500 1500 1499 1499 1499 1498 1498 1498 1497 1497 1496 1496 1495 1495 1493 1492 1491 1490 1489 1487 1486 1485 1485 1483 1482 1481 1479 1477 1475
1386 1391 1395 1398 1402 1405 1407 1409 1412 1414 1416 1419 1422 1425 1429 1435 1439 1442 1443 1445 1448 1449 1451 1453 1457 1461 1465 1468 1471 1474 1475 1477 1478 1480 1481 1482 1483 1483 1485 1486 1488 1489 1490 1491 1492 1493 1494 1495 1496 1497 1497 1498 1498 1498 1498 1498 1497 1497 1497 1497 1497 1496 1496 1496 1495 1495 1495 1495 1494 1493 1492 1491 1489 1488 1487 1485 1484 1484 1483 1482 1481 1480 1478 1476 1474
1388 1391 1395 1399 1402 1406 1408 1409 1412 1414 1416 1419 1422 1425 1428 1432 1436 1441 1443 1444 1445 1447 1449 1452 1456 1460 1464 1467 1469 1472 1474 1476 1477 1479 1480 1481 1482 1482 1484 1485 1486 1488 1489 1490 1491 1492 1493 1494 1494 1495 1496 1496 1496 1496 1496 1496 1496 1495 1495 1495 1495 1494 1494 1494 1494 1494 1494 1493 1492 1491 1490 1489 1487 1486 1485 1484 1483 1483 1482 1481 1479 1478 1476 1474 1472
1389 1392 1396 1400 1403 1406 1408 1409 1412 1414 1416 1419 1422 1425 1428 1432 1436 1441 1444 1444 1445 1447 1450 1453 1456 1460 1463 1465 1468 1470 1472 1474 1476 1478 1478 1479 1480 1481 1483 1484 1485 1486 1487 1488 1489 1490 1491 1492 1493 1494 1494 1495 1495 1495 1495 1495 1495 1494 1494 1494 1493 1493 1493 1492 1492 1492 1491 1491 1490 1489 1488 1487 1485 1484 1484 1484 1483 1482 1481 1479 1478 1476 1474 1472 1471
1392 1394 1397 1400 1403 1405 1407 1409 1412 1414 1417 1420 1423 1426 1430 1433 1438 1442 1444 1444 1445 1447 1451 1454 1457 1459 1462 1464 1467 1469 1471 1473 1475 1476 1477 1478 1479 1480 1482 1483 1484 1485 1486 1486 1488 1489 1489 1490 1491 1492 1493 1493 1493 1493 1493 1493 1493 1493 1493 1493 1492 1491 1491 1490 1490 1490 1489 1489 1489 1487 1486 1485 1483 1483 1483 1482 1481 1481 1479 1478 1476 1475 1473 1471 1469
1393 1396 1399 1401 1403 1405 1407 1410 1413 1415 1418 1422 1425 1428 1431 1434 1438 1442 1443 1444 1445 1448 1451 1453 1456 1459 1461 1463 1465 1467 1469 1471 1473 1474 1476 1477 1478 1479 1480 1481 1482 1483 1484 1485 1486 1487 1488 1489 1489 1490 1490 1491 1491 1491 1491 1491 1491 1491 1491 1491 1491 1490 1489 1488 1488 1488 1487 1487 1487 1485 1484 1483 1482 1482 1482 1481 1480 1479 1478 1476 1475 1473 1471 1470 1468
1395 1397 1400 1402 1403 1405 1406 1409 1413 1416 1419 1423 1427 1431 1433 1435 1439 1442 1443 1445 1446 1448 1450 1453 1455 1457 1460 1461 1463 1466 1468 1469 1471 1472 1474 1475 1476 1477 1478 1479 1480 1481 1482 1483 1484 1485 1486 1487 1488 1488 1488 1488 1489 1489 1490 1490 1489 1489 1489 1489 1489 1488 1487 1487 1486 1486 1485 1485 1484 1483 1482 1481 1481 1481 1480 1480 1479 1477 1476 1474 1473 1472 1470 1469 1467
1396 1398 1400 1403 1404 1405 1407 1409 1413 1416 1420 1424 1428 1431 1433 1436 1439 1441 1443 1444 1446 1448 1450 1452 1454 1456 1458 1460 1462 1464 1466 1468 1469 1471 1472 1473 1475 1476 1477 1478 1479 1479 1480 1481 1482 1483 1484 1485 1486 1486 1486 1486 1487 1487 1487 1488 1487 1487 1487 1487 1486 1486 1485 1485 1485 1485 1484 1483 1483 1481 1481 1480 1480 1480 1479 1478 1477 1476 1474 1473 1472 1470 1469 1467 1466
1397 1399 1401 1403 1405 1406 1407 1410 1413 1416 1420 1424 1428 1431 1433 1435 1438 1440 1442 1443 1445 1447 1450 1451 1453 1455 1456 1458 1460 1463 1464 1466 1468 1469 1471 1472 1473 1474 1475 1476 1477 1478 1478 1479 1480 1481 1482 1483 1483 1483 1484 1485 1485 1485 1485 1486 1486 1486 1485 1485 1484 1484 1484 1484 1483 1483 1482 1482 1481 1480 1480 1479 1479 1478 1477 1476 1475 1474 1473 1472 1470 1469 1467 1466 1464
1399 1401 1403 1404 1405 1407 1408 1410 1413 1416 1420 1424 1428 1430 1432 1435 1437 1439 1440 1441 1444 1447 1449 1450 1452 1454 1455 1457 1459 1461 1463 1465 1466 1468 1469 1470 1472 1473 1473 1474 1475 1476 1476 1477 1478 1479 1480 1481 1481 1481 1482 1483 1483 1483 1483 1484 1484 1484 1483 1483 1483 1482 1482 1482 1482 1481 1480 1479 1479 1479 1478 1478 1477 1476 1476 1475 1474 1473 1471 1470 1469 1467 1466 1464 1463
1399 1401 1403 1404 1405 1407 1409 1411 1414 1418 1421 1425 1428 1430 1432 1435 1436 1438 1439 1440 1443 1446 1448 1450 1451 1453 1454 1456 1458 1459 1462 1464 1465 1466 1468 1469 1470 1471 1471 1472 1473 1474 1474 1475 1476 1477 1478 1478 1479 1480 1481 1481 1482 1482 1482 1482 1482 1482 1481 1481 1481 1480 1480 1480 1480 1479 1478 1478 1478 1478 1477 1476 1475 1475 1474 1473 1472 1471 1470 1469 1468 1466 1465 1463 1461
1399 1401 1402 1404 1405 1407 1410 1413 1416 1420 1423 1426 1429 1431 1433 1434 1435 1436 1438 1440 1443 1445 1447 1448 1450 1452 1454 1455 1457 1459 1461 1462 1463 1465 1466 1467 1468 1469 1469 1470 1471 1472 1473 1473 1474 1475 1476 1476 1477 1478 1479 1480 1480 1480 1480 1481 1481 1480 1480 1479 1479 1479 1479 1478 1478 1477 1477 1477 1476 1476 1475 1475 1474 1473 1473 1472 1471 1470 1469 1467 1466 1465 1464 1462 1460
1400 1402 1404 1405 1407 1408 1411 1413 1417 1420 1425 1428 1430 1431 1432 1433 1434 1435 1437 1439 1442 1444 1445 1447 1449 1451 1452 1454 1456 1458 1459 1460 1461 1463 1464 1465 1466 1467 1468 1469 1470 1470 1471 1472 1473 1473 1474 1475 1476 1476 1477 1477 1478 1478 1478 1479 1479 1479 1478 1478 1477 1477 1477 1476 1476 1475 1475 1475 1475 1474 1473 1473 1473 1472 1471 1470 1469 1468 1467 1466 1465 1464 1462 1460 1459
1402 1404 1406 1408 1409 1411 1413 1415 1417 1421 1425 1428 1430 1431 1431 1432 1433 1435 1436 1439 1441 1443 1444 1446 1448 1449 1451 1453 1454 1456 1457 1458 1459 1460 1462 1463 1464 1465 1466 1467 1468 1468 1469 1470 1471 1472 1473 1473 1474 1475 1475 1475 1476 1476 1476 1477 1477 1477 1477 1476 1476 1475 1475 1474 1474 1473 1472 1472 1472 1472 1472 1472 1471 1471 1470 1469 1467 1466 1466 1464 1463 1462 1461 1459 1458
1404 1406 1408 1410 1412 1413 1415 1416 1418 1421 1424 1427 1429 1430 1431 1432 1433 1434 1436 1438 1440 1442 1444 1445 1447 1449 1450 1451 1452 1453 1455 1456 1457 1458 1460 1461 1462 1463 1464 1465 1465 1466 1467 1468 1469 1470 1471 1472 1472 1472 1473 1473 1474 1475 1475 1475 1475 1475 1475 1475 1474 1474 1473 1472 1472 1471 1470 1470 1470 1470 1470 1470 1470 1469 1468 1467 1466 1465 1464 1463 1462 1460 1459 1458 1456
1405 1407 1409 1411 1412 1414 1416 1417 1419 1421 1424 1426 1427 1429 1430 1431 1433 1434 1435 1437 1439 1441 1443 1445 1446 1448 1448 1449 1450 1452 1453 1454 1455 1456 1457 1459 1460 1461 1462 1463 1464 1465 1465 1467 1468 1469 1469 1470 1470 1471 1471 1472 1473 1473 1474 1474 1474 1474 1473 1473 1472 1471 1470 1470 1469 1468 1468 1468 1469 1469 1469 1469 1468 1467 1466 1465 1464 1463 1462 1461 1461 1459 1458 1456 1456
1408 1408 1409 1411 1413 1415 1416 1418 1419 1421 1423 1425 1426 1428 1430 1431 1433 1434 1436 1437 1438 1440 1442 1443 1445 1446 1447 1447 1449 1450 1451 1452 1453 1454 1455 1456 1457 1459 1460 1462 1463 1463 1464 1465 1466 1466 1467 1468 1468 1469 1470 1470 1471 1472 1472 1472 1472 1472 1472 1471 1470 1469 1468 1467 1467 1467 1467 1467 1467 1467 1467 1467 1466 1466 1465 1464 1463 1462 1461 1460 1459 1458 1457 1456 1455
1408 1409 1410 1411 1413 1415 1416 1416 1418 1421 1423 1425 1426 1427 1429 1431 1433 1434 1436 1437 1438 1439 1441 1442 1443 1444 1445 1446 1447 1448 1449 1450 1451 1452 1453 1455 1456 1457 1458 1459 1460 1461 1462 1462 1463 1464 1465 1466 1466 1467 1467 1468 1469 1470 1471 1471 1471 1470 1469 1468 1467 1467 1466 1466 1466 1466 1466 1466 1466 1466 1465 1465 1464 1464 1463 1462 1461 1460 1460 1459 1458 1457 1456 1455 1454
1407 1408 1410 1411 1413 1415 1416 1417 1419 1421 1423 1425 1426 1428 1430 1431 1432 1434 1436 1437 1437 1438 1439 1440 1441 1442 1443 1444 1445 1446 1448 1449 1449 1451 1452 1453 1454 1455 1456 1457 1458 1459 1459 1460 1461 1461 1462 1464 1464 1465 1465 1466 1467 1468 1469 1469 1468 1467 1467 1466 1465 1464 1464 1464 1464 1464 1464 1464 1464 1464 1463 1463 1462 1462 1461 1460 1460 1459 1458 1458 1457 1455 1455 1454 1453
1408 1408 1409 1411 1413 1415 1417 1418 1420 1422 1424 1425 1427 1428 1430 1431 1433 1434 1435 1436 1437 1438 1438 1439 1439 1440 1441 1442 1443 1445 1446 1447 1448 1449 1450 1451 1452 1453 1454 1455 1456 1457 1458 1458 1459 1459 1460 1461 1462 1462 1463 1464 1465 1465 1466 1466 1465 1464 1464 1464 1463 1463 1463 1463 1463 1463 1463 1462 1462 1462 1461 1461 1461 1460 1459 1459 1458 1457 1457 1456 1455 1455 1454 1454 1453
1411 1410 1411 1413 1414 1416 1418 1419 1421 1423 1424 1426 1427 1428 1430 1431 1432 1433 1434 1436 1436 1437 1437 1438 1438 1439 1440 1440 1441 1443 1444 1445 1447 1448 1449 1450 1451 1452 1453 1454 1454 1455 1455 1456 1457 1457 1458 1458 1459 1460 1461 1462 1462 1463 1463 1463 1463 1462 1462 1462 1462 1461 1462 1461 1461 1461 1461 1460 1460 1460 1460 1459 1459 1458 1457 1457 1456 1456 1455 1455 1454 1454 1453 1453 1452
1413 1413 1414 1415 1416 1417 1419 1421 1422 1423 1424 1425 1427 1428 1429 1430 1431 1432 1433 1434 1435 1435 1436 1437 1437 1438 1438 1439 1440 1441 1443 1445 1446 1447 1448 1449 1449 1450 1450 1451 1452 1452 1453 1453 1454 1454 1455 1456 1457 1458 1459 1459 1460 1460 1461 1461 1461 1461 1460 1460 1460 1460 1460 1460 1460 1459 1459 1459 1459 1458 1458 1457 1457 1456 1455 1455 1455 1454 1454 1454 1453 1453 1452 1451 1450